SL-14 DEB, 47080

Orbit data source: Space-Track

SL-14 DEB, 47080 is space debris in LEO originally from a launch on Thu, 15 Aug 1991 UTC launched from the Plesetsk Missile And Space Complex (PKMTR). Debris objects in space refer to the collection of defunct objects orbiting the Earth. Examples of debris include non-operational satellites, rocket bodies, and fragments generated from explosions, collisions, or faulty payload assembly.

Loading next visibility...
SL-14 DEB details
Identifier
47080, 1991-056DE
Orbit
LEO
Last TLE update2 days ago
Origin
Flag of CISRosgidromet (CIS)
ManufacturerUnknown
MissionSpacecraft
Bus & MotorUnknown
MassUnknown
Launch date (UTC)
1991-08-15 (33 years ago)
Launch vehicleUnknown
Launch site
Plesetsk Missile And Space Complex (PKMTR)
Object type
Payload
Rocket body
Debris
Shape & HBRUnknown
Radar Cross SectionSmall (<0.1 m²)

Expand to show TLE details & history

TLE from 2 days ago
0 SL-14 DEB
1 47080U 91056DE  24336.96512842  .00028806  00000-0  21876-1 0  9994
2 47080  82.5101  61.6611 0153317 330.9127  28.3556 13.88225878203303
Epoch: 2024-12-01T23:09Z
Definitive object data (Epoch: 2024-12-01T23:09:47.095Z)
Latitude0.00001°
Longitude2.9191°
Altitude839.471 km
Speed7.483 km/s
True Right ascension04h 06m 38s
True Declination0° 00' 00"
Sunlit
Object was in full shadow at TLE epoch
Visualization TLE readout
Latitude82.45063°
Longitude100.27314°
Altitude1,014.351 km
Speed7.318 km/s
Apparent Right ascension17h 51m 30s
Apparent Declination35° 44' 33"
Sunlit
Object is in daylight
Visualization observer readout
Local Sidereal Time06:34:53
Azimuth9.043° NNE
Elevation-13.685°
Doppler factor1
Orbital elements
Apogee altitude1,044.078 km
Perigee altitude819.925 km
Semi-major axis7,310.138 km
Eccentricity0.0153317
Inclination82.5101°
RAAN61.6611°
Arg. of periapsis330.9127°
True anomaly29.20429°
Mean anomaly28.3556°
Eccentric anomaly28.7785°
Mean motion3.4726 °/min
BSTAR0.021876
Orbital period103.67 mins
Loading maneuver chart data...
Loading historical data...
Loading historical data...
Loading historical data...
Loading historical data...
Loading historical data...
Loading historical data...
Loading historical data...

SL-14 DEB Visibility forecast

Observer location: undefined°, undefined

Span
Click to sort rows by Start time (UTC) header in descending order
Start Az.
Max El. time (UTC)
Max El. Az.
Max El.
End time (UTC)
End Az.
5 mins2024-12-04 15:45:43.604Z39.132° NE2024-12-04 15:48:43.604Z67.367° ENE13.297°2024-12-04 15:50:43.604Z86.245° E
11 mins2024-12-04 17:28:43.604Z353.859° N2024-12-04 17:33:43.604Z32.124° NE44.825°2024-12-04 17:39:43.604Z172.196° S
5 mins2024-12-04 19:15:43.604Z297.845° NW2024-12-04 19:17:43.604Z278.268° WNW13.86°2024-12-04 19:20:43.604Z250.664° W
6 mins2024-12-05 05:08:43.604Z117.297° SE2024-12-05 05:11:43.604Z77.764° E20.188°2024-12-05 05:14:43.604Z43.476° NE
9 mins2024-12-05 06:51:43.604Z216.585° SW2024-12-05 06:55:43.604Z294.506° NW36.714°2024-12-05 07:00:43.604Z355.462° N
|